Location: Felles
(48.4167°N, 15.2667°E)
Time: 13:14:52
(UTC+00:00)

Daily predictions for brighter satellites

Satellite Brightness Start Highest point End
(mag) Time Altitude Azimuth Time Altitude Azimuth Time Altitude Azimuth
Cosmos 1727 Rocket 4.3 17:30:56 10° SSE 17:36:53 45° E 17:42:48 10° NNE
Cosmos 2322 Rocket 2.5 17:32:28 10° NNW 17:38:11 76° WSW 17:43:52 10° SSE
SL-8 R/B 3.8 17:33:23 10° W 17:38:11 82° SSW 17:43:01 10° ESE
Cosmos 2237 Rocket 4.0 17:35:49 10° N 17:39:16 16° NE 17:42:42 10° ENE
Cosmos 2084 Rocket 3.3 17:36:48 10° NW 17:40:33 60° NE 17:44:22 10° SE
YAOGAN 1 2.5 17:36:24 10° SSE 17:40:42 82° ENE 17:45:02 10° NNW
ISS -3.5 17:40:03 10° SW 17:43:18 51° SSE 17:46:35 10° ENE
USA 306 2.6 17:39:33 10° WNW 17:43:20 82° SSW 17:47:06 10° ESE
SL-27 R/B 4.1 17:43:09 10° SE 17:44:55 14° E 17:46:40 10° ENE
Cosmos 1818 4.2 17:40:59 10° NNW 17:46:11 42° NE 17:51:20 10° ESE
Cosmos 407 Rocket 3.6 17:41:03 10° NNW 17:46:24 84° ENE 17:51:45 10° SSE
Cosmos 1842 3.3 17:44:22 10° N 17:48:08 55° ENE 17:51:52 10° SSE
Cosmos 1975 4.2 17:45:36 10° SE 17:48:19 18° E 17:51:04 10° NE
USA 267 4.3 17:44:32 10° SSE 17:50:48 46° SW 17:57:06 10° WNW
Cosmos 2322 4.2 17:45:56 10° NNW 17:51:19 42° NE 17:56:40 10° SE
NOSS 3-1 (A) 4.3 17:46:21 10° WSW 17:51:30 48° NW 17:57:42 10° NE
CZ-4C R/B 4.3 17:47:39 10° NW 17:52:10 21° N 17:57:27 10° NE
CZ-4B R/B 3.3 17:47:26 10° SSE 17:53:06 82° ENE 17:58:48 10° NNW
Cosmos 1626 2.6 17:50:16 10° N 17:53:36 35° ENE 17:56:53 10° SE
SJ-6B 3.4 17:50:36 10° SE 17:54:16 38° ENE 17:57:53 10° N
COSMO-SKYMED 1 4.1 17:51:23 10° N 17:55:29 41° WNW 17:59:33 10° SW
Cosmos 1371 Rocket 4.4 17:50:57 10° S 17:55:50 40° ESE 18:00:42 10° NE
USA 186 2.6 17:54:13 10° SE 17:56:55 28° ENE 17:59:39 10° N
Cosmos 2333 Rocket 2.2 17:51:09 10° NNW 17:56:58 79° ENE 18:02:44 10° SSE
CZ-4C R/B 4.0 17:53:51 10° N 17:57:29 56° WNW 18:01:17 10° SSW
NOSS 3-2 (A) 4.4 17:51:03 10° NW 17:57:58 49° NE 18:05:45 11° ESE
ATLAS 3B R/B 4.4 17:56:31 10° W 18:02:37 30° NNW 18:09:03 10° NE
GEOS 3 Rocket 3.8 17:57:49 10° NE 18:03:14 86° NW 18:08:38 10° SW
Cosmos 1536 3.5 18:00:42 10° SSW 18:04:33 58° WNW 18:08:27 10° N
Cosmos 2056 Rocket 3.8 17:59:47 10° S 18:04:36 43° ESE 18:09:26 10° NE
Meteor 2-9 Rocket 4.1 18:01:51 10° S 18:07:19 62° E 18:12:40 10° NNE
Cosmos 2219 Rocket 2.2 18:02:03 10° NNW 18:07:44 66° ENE 18:13:22 10° SE
COSMOS 2428 3.2 18:02:37 10° NNW 18:08:07 44° NE 18:13:07 12° ESE
MINOTAUR 4 R/B 3.9 18:04:53 10° NNE 18:08:18 65° ESE 18:11:42 10° S
CZ-4 R/B 1.3 18:05:04 10° SSE 18:08:53 84° WSW 18:12:46 10° NNW
Cosmos 1833 4.1 18:03:23 10° SSW 18:08:56 72° ESE 18:14:34 10° NNE
JB-3 4.3 18:05:38 10° NNE 18:09:38 68° ESE 18:13:40 10° S
Cosmos 1459 Rocket 4.0 18:04:13 10° N 18:10:11 57° ENE 18:16:07 10° SSE
Feng Yun 1-1 Rocket 4.2 18:04:43 10° SSE 18:10:12 78° ENE 18:15:52 10° NNW
Cosmos 1707 2.7 18:06:44 10° N 18:10:30 58° ENE 18:14:14 10° SSE
Cosmos 1666 Rocket 4.3 18:07:50 10° SSW 18:12:09 56° WNW 18:16:27 10° N
Cosmos 1725 Rocket 4.5 18:06:54 10° N 18:12:40 39° ENE 18:18:24 10° SE
Cosmos 1933 Rocket 3.8 18:08:42 10° SSE 18:12:47 43° E 18:16:55 10° NNE
SPOT 1/Viking Rocket 4.3 18:09:33 11° SE 18:13:53 32° ENE 18:18:28 10° N
USA 307 2.9 18:11:17 10° WNW 18:15:05 63° SW 18:18:12 14° SE
USA 305 2.8 18:11:28 10° WNW 18:15:15 67° SW 18:18:19 15° SE
CSL-04 Debris 4.2 18:11:10 10° SSE 18:16:27 60° ENE 18:21:49 10° N
CENTAUR R/B 3.4 18:09:54 10° NW 18:17:50 62° NE 18:25:32 15° ESE
Cosmos 1624 Rocket 4.1 18:13:18 10° S 18:18:28 57° ESE 18:23:41 10° NNE
Geosat 4.3 18:14:08 12° SE 18:18:34 51° NE 18:23:26 10° NNW
Resurs 01 Rocket 2.7 18:17:20 16° ESE 18:19:51 27° ENE 18:23:36 10° N
USA 281 3.7 18:13:21 10° NNE 18:19:51 65° WNW 18:26:19 10° SW
Okean 1-7 3.0 18:17:07 10° N 18:21:30 72° E 18:25:50 10° SSE
Cosmos 1869 Rocket 4.3 18:18:16 10° SSE 18:21:58 29° E 18:25:43 10° NNE
Spot 1 4.4 18:17:28 10° NNE 18:22:19 69° ESE 18:27:22 10° S
Cosmos 1802 Rocket 4.1 18:17:08 10° N 18:23:17 58° ENE 18:29:29 10° SSE
Okean 2 4.3 18:21:47 10° N 18:25:19 28° ENE 18:26:57 21° ESE
Cosmos 1420 Rocket 3.9 18:22:12 10° S 18:27:22 64° ESE 18:32:33 10° NNE
Okean 3 3.4 18:26:56 10° N 18:31:10 89° W 18:35:23 10° S
IRS-1C Rocket 4.4 18:27:49 13° SE 18:32:14 49° ENE 18:37:19 10° N
H-2A R/B 4.3 18:31:53 15° ENE 18:32:30 16° ENE 18:35:09 10° NNE
Cosmos 1633 Rocket 4.5 18:28:59 10° SSW 18:33:09 42° WNW 18:37:21 10° N
Iridium 4 Rocket 3.3 18:30:59 10° N 18:35:03 43° E 18:37:44 19° SSE
Cosmos 1674 2.6 18:31:46 10° N 18:35:29 88° W 18:39:12 10° S
Cosmos 2360 Rocket 3.6 18:32:28 10° NW 18:37:41 39° WSW 18:42:51 10° S
Cosmos 2098 Rocket 3.8 18:33:38 10° SSE 18:38:32 54° E 18:44:31 10° NNE
Cosmos 1437 Rocket 3.7 18:34:58 10° SSW 18:38:57 53° WNW 18:42:56 10° N
Cosmos 1452 Rocket 4.2 18:37:59 10° SSE 18:42:33 31° E 18:47:09 10° NE
Cosmos 676 Rocket 4.0 18:38:42 10° NNW 18:43:56 84° WSW 18:48:49 12° SSE
Cosmos 2016 Rocket 3.9 18:38:49 10° N 18:44:56 69° ENE 18:51:01 10° SSE
Resurs 1-3 3.6 18:41:40 10° SSE 18:46:02 83° WSW 18:50:26 10° NNW
Cosmos 2123 Rocket 4.0 18:40:14 10° S 18:46:24 63° E 18:52:39 10° NNE
SL-16 R/B 3.9 18:42:46 10° N 18:46:30 17° NE 18:48:40 14° ENE
USA 308 3.7 18:43:06 10° WNW 18:46:36 37° SW 18:48:34 21° SSE
BREEZE-M DEB (TANK) 4.2 18:42:38 10° W 18:46:37 85° N 18:59:33 13° E
Cosmos 1703 Rocket 3.7 18:42:09 10° NNW 18:46:37 76° W 18:51:02 10° S
Okean-O 2.5 18:43:42 15° SSE 18:47:17 75° ENE 18:51:44 10° N
Cosmos 2173 Rocket 4.3 18:44:40 10° NNW 18:51:03 73° W 18:57:23 10° S
BREEZE M DEB (TANK) 1.6 18:50:07 10° W 18:52:37 79° N 18:52:43 75° NNE
SL-08 R/B 4.5 18:47:36 10° N 18:54:01 70° ENE 18:59:35 14° SSE
Landsat 5 3.4 18:52:40 10° NNE 18:56:23 47° E 18:57:16 39° SE
Cosmos 2100 Rocket 4.5 18:50:14 10° NNW 18:56:32 64° W 19:02:46 10° S
USA 215 4.1 18:50:41 10° ENE 18:56:50 45° N 19:03:00 10° W
Cosmos 1741 Rocket 4.2 18:52:02 10° NNW 18:57:09 51° ENE 18:59:05 34° ESE
EXPRESS MD2 4.3 18:57:46 10° WSW 18:59:08 17° SW 18:59:08 17° SW
Cosmos 1733 3.0 18:58:04 22° S 19:00:23 67° E 19:04:09 10° NNE
Okean O Rocket 3.4 18:57:13 10° SSW 19:01:09 31° W 19:05:06 10° NNW
Cosmos 2242 Rocket 3.6 18:57:07 10° N 19:01:43 90° ENE 19:04:48 21° S
ATLAS CENTAUR R/B 4.4 18:47:12 10° SSW 19:04:03 61° SE 19:12:07 10° ENE
Cosmos 1726 2.3 19:08:38 49° NE 19:08:38 49° NE 19:11:27 10° NNE
Cosmos 192 4.3 19:03:45 10° S 19:08:36 58° ESE 19:13:29 10° NNE
ADEOS Rocket 4.1 19:11:23 26° ENE 19:12:48 29° ENE 19:18:28 10° N
NOSS 0 Rocket 3.8 19:06:39 10° NNW 19:12:54 81° ENE 19:15:43 35° SE
CARTOSAT-1 3.6 19:12:34 52° E 19:12:59 54° ENE 19:17:12 10° N
Exosat Rocket 4.3 19:10:34 10° SW 19:15:39 62° WNW 19:22:10 10° NNE
Cosmos 968 Rocket 4.2 19:11:59 10° N 19:16:45 35° ENE 19:17:11 35° ENE
Terra 3.4 19:18:08 21° NE 19:18:08 21° NE 19:21:03 10° NNE
SPOT 5 3.8 19:18:20 30° NE 19:18:20 30° NE 19:22:05 10° N
SL-27 R/B 3.7 19:15:57 10° SW 19:19:06 40° WNW 19:22:13 10° N
ISS -3.2 19:16:50 10° W 19:20:07 53° N 19:20:07 53° N
Ariane Rocket 3.3 19:22:38 45° E 19:23:02 46° ENE 19:27:52 10° N
IRS-1A Rocket 4.3 19:21:15 39° SE 19:23:31 71° ENE 19:29:23 10° NNW
Cosmos 1975 4.1 19:20:32 10° SW 19:24:15 40° WNW 19:28:02 10° N
Cosmos 2237 Rocket 2.2 19:18:55 10° NNW 19:24:32 62° ENE 19:25:47 50° ESE
SPOT 3 Rocket 4.2 19:25:00 38° ENE 19:25:05 38° ENE 19:29:53 10° N
ERS-1 Rocket 3.9 19:26:32 31° NE 19:26:32 31° NE 19:30:34 10° N
Cosmos 2061 Rocket 4.2 19:23:20 10° NNW 19:29:46 72° W 19:34:58 16° S
Meteor 2-10 4.0 19:26:06 10° SSW 19:31:06 75° WNW 19:36:12 10° N
Spot 2 Rocket 4.3 19:34:35 36° NE 19:34:35 36° NE 19:38:48 10° N
Cosmos 2233 Rocket 4.0 19:34:47 10° NNW 19:40:56 76° W 19:44:06 30° S
MOS 1 4.4 19:39:27 37° S 19:41:48 74° WSW 19:47:33 10° NNW
CZ-4C R/B 3.8 19:36:42 10° NW 19:42:41 34° NNE 19:45:25 27° ENE
Cosmos 1805 4.1 19:43:25 37° WSW 19:44:21 46° WNW 19:48:04 10° N
Cosmos 1980 3.6 19:39:27 10° NNW 19:45:11 90° N 19:46:05 65° SSE
SL-14 R/B 4.2 19:43:16 10° NNW 19:46:56 42° W 19:47:11 41° WSW
Meteor 2-5 Rocket 4.2 19:42:10 10° N 19:47:22 46° ENE 19:47:22 46° ENE
NOSS 3-2 (A) 4.4 19:41:51 10° NW 19:49:14 60° WSW 19:53:10 33° S
MetOp-A 4.1 19:48:16 56° S 19:49:23 76° WSW 19:54:41 10° NNW
Cosmos 2219 Rocket 4.3 19:46:51 10° NW 19:51:10 23° WSW 19:55:29 10° SSW
COSMOS 2428 4.0 19:47:05 10° NW 19:52:16 36° WSW 19:55:09 22° SSW
MetOp-B 4.0 19:51:49 70° S 19:52:28 86° WSW 19:57:52 10° NNW
BREEZE-M DEB (TANK) 3.8 19:49:20 10° WNW 19:52:45 40° WNW 19:52:45 40° WNW
Resurs 01 Rocket 2.9 19:54:51 29° SW 19:56:12 36° W 20:00:19 10° NNW
NOSS 3-2 (C) 4.0 19:50:16 10° NW 19:57:44 83° SW 20:00:13 51° SSE
SJ 16-02 3.5 19:54:31 10° N 19:56:03 16° NNE 19:56:03 16° NNE
Meteor 2-15 4.5 19:55:33 10° N 20:01:28 62° ENE 20:01:28 62° ENE
Cosmos 1072 Rocket 4.5 19:58:31 10° N 20:04:56 66° ENE 20:04:57 66° E
Cosmos 2297 Rocket 3.0 20:08:56 40° NE 20:08:56 40° NE 20:12:30 10° NNE
H-2A R/B 3.3 20:08:14 51° NW 20:08:14 51° NW 20:11:40 10° NNW
CENTAUR R/B 3.9 20:00:47 10° NW 20:08:40 48° WSW 20:12:44 30° S
USA 238 DEB 3.8 20:03:37 10° NW 20:10:57 84° SW 20:12:16 65° SSE
USA 238 3.8 20:03:43 10° NW 20:11:03 85° SW 20:12:21 65° SSE
Cosmos 1110 Rocket 4.2 20:12:51 66° W 20:13:05 67° WNW 20:18:17 10° NNE
Cosmos 2227 Rocket 4.1 20:26:17 18° NE 20:26:17 18° NE 20:27:44 10° NNE
BREEZE-M DEB (TANK) 3.4 20:16:36 10° WNW 20:21:44 65° WNW 20:21:44 65° WNW
SL-16 R/B 2.7 20:26:01 10° NNW 20:30:33 54° N 20:30:33 54° N
Cosmos 1464 Rocket 4.0 20:29:12 10° N 20:35:08 78° NW 20:35:08 78° NW
USA 215 4.0 20:37:36 39° NE 20:39:08 45° N 20:45:18 10° WNW
Terra 3.5 20:56:53 30° NW 20:56:53 30° NW 20:59:25 10° NNW
ADEOS Rocket 3.4 20:58:19 62° WNW 20:58:19 62° WNW 21:04:31 10° NNW
Cosmos 2237 Rocket 4.0 21:03:44 10° NW 21:07:37 23° W 21:07:37 23° W
ATLAS CENTAUR R/B 4.1 21:06:33 10° WSW 21:19:45 60° NNW 21:22:22 40° NNE
CZ-4C R/B 3.2 21:24:58 10° NW 21:30:35 62° NW 21:30:35 62° NW
SJ 16-02 4.3 21:32:16 10° NNW 21:32:57 14° NNW 21:32:57 14° NNW
Cosmos 2344 4.4 21:29:40 10° NW 21:37:42 53° NE 21:38:55 50° ENE
ATLAS 3B R/B 3.8 21:41:29 10° NW 21:48:14 42° NNE 21:48:14 42° NNE
Cosmos 2297 Rocket 4.2 21:50:34 22° WNW 21:51:32 23° NW 21:56:01 10° N
Cosmos 2227 Rocket 4.2 22:08:01 24° NNW 22:08:01 24° NNW 22:11:25 10° NNE
ATLAS 2AS CENTAUR R/B 4.3 22:53:28 30° NE 22:53:28 30° NE 22:56:43 10° NE
Cosmos 2263 Rocket 4.5 23:04:25 19° N 23:04:25 19° N 23:06:22 10° NNE
SL-16 R/B 4.4 23:26:59 22° NE 23:26:59 22° NE 23:31:23 10° N
ATLAS 3B R/B 4.4 23:32:19 10° NW 23:35:28 28° NW 23:35:28 28° NW
Cosmos 2082 Rocket 4.3 23:43:19 10° N 23:46:10 22° NNE 23:46:10 22° NNE
